Back to catalog

DELTA 1 DEB

AliveSSO
NORAD 10869·DEBRIS·🇺🇸 United States

Launched Jul 29, 1976 from Vandenberg Space Force Base

Loading…

Next Passes (next 24 hours)

TLE

FreshSource: Space-Track

Epoch: Sep 14, 2026, 07:19 UTC

1 10869U 76077CX  26257.30514358  .00000058  00000-0  74770-3 0  9993
2 10869 102.2847  30.8963 0026957 350.0739  39.2710 12.43476503272407

Track DELTA 1 DEB in real time with AllMySat

Download on the App Store